| time (UTC) | temp F | wind direction | speed MPH | gust MPH | rain 1hr in | rain 24hr in | rain mn in | humidity % | barometer mb |
| 20260504050421 | 47 | 181 | 0.0 | 0.0 | 0.00 | 0.00 | 0.00 | 85 | 1019.2 |
| 20260504045918 | 47 | 181 | 0.0 | 0.0 | 0.00 | 0.00 | 0.00 | 85 | 1019.2 |
| 20260504045414 | 48 | 181 | 0.0 | 0.0 | 0.00 | 0.00 | 0.00 | 86 | 1019.2 |
| 20260504044910 | 47 | 180 | 0.0 | 0.0 | 0.00 | 0.00 | 0.00 | 86 | 1019.2 |
| 20260504044408 | 48 | 181 | 0.0 | 0.0 | 0.00 | 0.00 | 0.00 | 85 | 1019.1 |
| 20260504043905 | 48 | 181 | 0.0 | 0.0 | 0.00 | 0.00 | 0.00 | 84 | 1019.3 |
| 20260504043402 | 48 | 180 | 0.0 | 0.0 | 0.00 | 0.00 | 0.00 | 84 | 1019.1 |
| 20260504042900 | 48 | 180 | 0.0 | 0.0 | 0.00 | 0.00 | 0.00 | 84 | 1019.1 |
| 20260504042355 | 49 | 175 | 0.0 | 0.0 | 0.00 | 0.00 | 0.00 | 84 | 1019.1 |
| 20260504041852 | 49 | 181 | 0.0 | 0.0 | 0.00 | 0.00 | 0.00 | 84 | 1019.2 |
| 20260504041348 | 49 | 181 | 0.0 | 0.0 | 0.00 | 0.00 | 0.00 | 84 | 1019.1 |
| 20260504040845 | 50 | 181 | 0.0 | 0.0 | 0.00 | 0.00 | 0.00 | 83 | 1018.9 |
| 20260504040343 | 50 | 181 | 0.0 | 0.0 | 0.00 | 0.00 | 0.00 | 82 | 1019.0 |
| 20260504035838 | 49 | 181 | 0.0 | 0.0 | 0.00 | 0.00 | 0.00 | 83 | 1019.0 |
| 20260504035337 | 49 | 181 | 0.0 | 0.0 | 0.00 | 0.00 | 0.00 | 85 | 1019.1 |
| 20260504034832 | 49 | 181 | 0.0 | 0.0 | 0.00 | 0.00 | 0.00 | 84 | 1019.3 |
| 20260504034330 | 50 | 181 | 0.0 | 0.0 | 0.00 | 0.00 | 0.00 | 83 | 1019.0 |
| 20260504033827 | 50 | 181 | 0.0 | 0.0 | 0.00 | 0.00 | 0.00 | 83 | 1019.3 |
| 20260504033326 | 50 | 181 | 0.0 | 0.0 | 0.00 | 0.00 | 0.00 | 83 | 1019.3 |
| 20260504032821 | 50 | 181 | 0.0 | 0.0 | 0.00 | 0.00 | 0.00 | 82 | 1019.1 |
| 20260504032319 | 50 | 181 | 0.0 | 0.0 | 0.00 | 0.00 | 0.00 | 81 | 1018.9 |
| 20260504031815 | 50 | 181 | 0.0 | 0.0 | 0.00 | 0.00 | 0.00 | 82 | 1019.0 |
| 20260504031313 | 51 | 181 | 0.0 | 0.0 | 0.00 | 0.00 | 0.00 | 82 | 1019.0 |
| 20260504030809 | 51 | 176 | 0.0 | 0.0 | 0.00 | 0.00 | 0.00 | 81 | 1019.1 |
| 20260504030306 | 50 | 181 | 0.0 | 1.0 | 0.00 | 0.00 | 0.00 | 79 | 1018.7 |
| 20260504025802 | 50 | 181 | 0.0 | 0.0 | 0.00 | 0.00 | 0.00 | 82 | 1018.9 |
| 20260504025259 | 50 | 181 | 0.0 | 0.0 | 0.00 | 0.00 | 0.00 | 82 | 1019.2 |
| 20260504024756 | 51 | 181 | 0.0 | 0.0 | 0.00 | 0.00 | 0.00 | 81 | 1019.2 |
| 20260504024253 | 51 | 181 | 0.0 | 0.0 | 0.00 | 0.00 | 0.00 | 81 | 1019.1 |
| 20260504023750 | 52 | 181 | 0.0 | 0.0 | 0.00 | 0.00 | 0.00 | 81 | 1019.3 |
| 20260504023246 | 52 | 175 | 0.0 | 0.0 | 0.00 | 0.00 | 0.00 | 79 | 1019.1 |
| 20260504022742 | 52 | 181 | 0.0 | 0.0 | 0.00 | 0.00 | 0.00 | 78 | 1018.9 |
| 20260504022238 | 53 | 181 | 0.0 | 0.0 | 0.00 | 0.00 | 0.00 | 78 | 1019.0 |
| 20260504021735 | 53 | 181 | 0.0 | 1.0 | 0.00 | 0.00 | 0.00 | 77 | 1018.8 |
| 20260504021232 | 53 | 181 | 0.0 | 0.0 | 0.00 | 0.00 | 0.00 | 76 | 1018.9 |
| 20260504020724 | 53 | 181 | 0.0 | 0.0 | 0.00 | 0.00 | 0.00 | 75 | 1018.9 |
| 20260504020220 | 54 | 181 | 0.0 | 0.0 | 0.00 | 0.00 | 0.00 | 74 | 1018.9 |
| 20260504015716 | 54 | 181 | 0.0 | 0.0 | 0.00 | 0.00 | 0.00 | 74 | 1018.7 |
| 20260504015212 | 54 | 181 | 0.0 | 0.0 | 0.00 | 0.00 | 0.00 | 73 | 1018.6 |
| 20260504014708 | 54 | 176 | 0.0 | 0.0 | 0.00 | 0.00 | 0.00 | 73 | 1018.6 |
| 20260504014206 | 55 | 181 | 0.0 | 0.0 | 0.00 | 0.00 | 0.00 | 71 | 1018.7 |
| 20260504013703 | 55 | 181 | 0.0 | 0.0 | 0.00 | 0.00 | 0.00 | 69 | 1018.5 |
| 20260504013200 | 56 | 181 | 0.0 | 0.0 | 0.00 | 0.00 | 0.00 | 68 | 1018.7 |
| 20260504012657 | 56 | 181 | 0.0 | 0.0 | 0.00 | 0.00 | 0.00 | 68 | 1018.5 |
| 20260504012155 | 57 | 181 | 0.0 | 0.0 | 0.00 | 0.00 | 0.00 | 64 | 1018.4 |
| 20260504011651 | 58 | 181 | 0.0 | 0.0 | 0.00 | 0.00 | 0.00 | 63 | 1018.3 |
| 20260504011148 | 58 | 181 | 0.0 | 0.0 | 0.00 | 0.00 | 0.00 | 61 | 1018.3 |
| 20260504010644 | 59 | 181 | 0.0 | 0.0 | 0.00 | 0.00 | 0.00 | 58 | 1018.2 |
| 20260504010140 | 60 | 176 | 0.0 | 0.0 | 0.00 | 0.00 | 0.00 | 57 | 1018.1 |
| 20260504005637 | 61 | 181 | 0.0 | 1.0 | 0.00 | 0.00 | 0.00 | 53 | 1018.3 |
| 20260504005133 | 61 | 181 | 2.0 | 2.0 | 0.00 | 0.00 | 0.00 | 51 | 1018.0 |
| 20260504004632 | 61 | 197 | 1.0 | 2.0 | 0.00 | 0.00 | 0.00 | 52 | 1018.1 |
| 20260504004128 | 62 | 183 | 0.0 | 1.0 | 0.00 | 0.00 | 0.00 | 52 | 1018.0 |
| 20260504003625 | 62 | 183 | 0.0 | 2.0 | 0.00 | 0.00 | 0.00 | 52 | 1018.0 |
| 20260504003121 | 62 | 194 | 0.0 | 0.0 | 0.00 | 0.00 | 0.00 | 54 | 1017.9 |
| 20260504002618 | 62 | 195 | 0.0 | 0.0 | 0.00 | 0.00 | 0.00 | 56 | 1017.8 |
| 20260504002116 | 63 | 195 | 0.0 | 0.0 | 0.00 | 0.00 | 0.00 | 52 | 1018.0 |
| 20260504001614 | 64 | 195 | 0.0 | 1.0 | 0.00 | 0.00 | 0.00 | 48 | 1018.3 |
| 20260504001109 | 64 | 185 | 0.0 | 1.0 | 0.00 | 0.00 | 0.00 | 47 | 1018.2 |
| 20260504000607 | 64 | 193 | 0.0 | 0.0 | 0.00 | 0.00 | 0.00 | 47 | 1018.0 |
| 20260504000104 | 65 | 193 | 0.0 | 0.0 | 0.00 | 0.00 | 0.00 | 47 | 1018.2 |
| 20260503235603 | 65 | 193 | 0.0 | 1.0 | 0.00 | 0.00 | 0.00 | 47 | 1018.2 |
| 20260503235059 | 66 | 203 | 1.0 | 2.0 | 0.00 | 0.00 | 0.00 | 44 | 1018.2 |
| 20260503234557 | 67 | 189 | 0.0 | 0.0 | 0.00 | 0.00 | 0.00 | 43 | 1018.0 |
| 20260503234055 | 67 | 200 | 0.0 | 0.0 | 0.00 | 0.00 | 0.00 | 42 | 1018.1 |
| 20260503233551 | 68 | 200 | 0.0 | 2.0 | 0.00 | 0.00 | 0.00 | 42 | 1018.0 |
| 20260503233047 | 69 | 189 | 1.0 | 1.0 | 0.00 | 0.00 | 0.00 | 40 | 1018.1 |
| 20260503232544 | 69 | 218 | 1.0 | 4.0 | 0.00 | 0.00 | 0.00 | 39 | 1018.1 |
| 20260503232042 | 69 | 191 | 1.0 | 1.0 | 0.00 | 0.00 | 0.00 | 41 | 1018.1 |
| 20260503231540 | 70 | 176 | 1.0 | 3.0 | 0.00 | 0.00 | 0.00 | 40 | 1018.0 |
| 20260503231036 | 70 | 202 | 1.0 | 3.0 | 0.00 | 0.00 | 0.00 | 42 | 1018.0 |
| 20260503230532 | 69 | 227 | 0.0 | 0.0 | 0.00 | 0.00 | 0.00 | 42 | 1018.0 |
| 20260503230030 | 69 | 227 | 0.0 | 1.0 | 0.00 | 0.00 | 0.00 | 42 | 1018.1 |
| 20260503225527 | 69 | 226 | 2.0 | 4.0 | 0.00 | 0.00 | 0.00 | 40 | 1018.0 |
| 20260503225021 | 70 | 201 | 0.0 | 2.0 | 0.00 | 0.00 | 0.00 | 40 | 1018.1 |
| 20260503224520 | 70 | 249 | 1.0 | 2.0 | 0.00 | 0.00 | 0.00 | 40 | 1018.3 |
| 20260503224017 | 70 | 278 | 2.0 | 3.0 | 0.00 | 0.00 | 0.00 | 39 | 1018.3 |
| 20260503223515 | 70 | 240 | 4.0 | 6.0 | 0.00 | 0.00 | 0.00 | 39 | 1018.4 |
| 20260503223010 | 71 | 188 | 3.0 | 6.0 | 0.00 | 0.00 | 0.00 | 39 | 1018.1 |
| 20260503222509 | 71 | 239 | 0.0 | 2.0 | 0.00 | 0.00 | 0.00 | 40 | 1018.3 |
| 20260503222006 | 70 | 285 | 0.0 | 2.0 | 0.00 | 0.00 | 0.00 | 39 | 1018.5 |
| 20260503221504 | 70 | 190 | 4.0 | 6.0 | 0.00 | 0.00 | 0.00 | 40 | 1018.4 |
| 20260503221001 | 70 | 228 | 2.0 | 3.0 | 0.00 | 0.00 | 0.00 | 41 | 1018.4 |
| 20260503220457 | 70 | 278 | 4.0 | 6.0 | 0.00 | 0.00 | 0.00 | 40 | 1018.3 |
| 20260503215954 | 71 | 187 | 0.0 | 2.0 | 0.00 | 0.00 | 0.00 | 41 | 1018.5 |
| 20260503215451 | 70 | 239 | 0.0 | 3.0 | 0.00 | 0.00 | 0.00 | 40 | 1018.6 |
| 20260503214949 | 71 | 187 | 3.0 | 4.0 | 0.00 | 0.00 | 0.00 | 40 | 1018.3 |
| 20260503214447 | 70 | 176 | 3.0 | 4.0 | 0.00 | 0.00 | 0.00 | 42 | 1018.4 |
| 20260503213943 | 70 | 224 | 1.0 | 3.0 | 0.00 | 0.00 | 0.00 | 40 | 1018.5 |
| 20260503213442 | 69 | 255 | 2.0 | 7.0 | 0.00 | 0.00 | 0.00 | 40 | 1018.5 |
| 20260503212938 | 69 | 145 | 2.0 | 9.0 | 0.00 | 0.00 | 0.00 | 41 | 1018.4 |
| 20260503212435 | 70 | 242 | 0.0 | 0.0 | 0.00 | 0.00 | 0.00 | 38 | 1018.7 |
| 20260503211933 | 69 | 188 | 3.0 | 3.0 | 0.00 | 0.00 | 0.00 | 41 | 1018.8 |
| 20260503211430 | 69 | 202 | 1.0 | 2.0 | 0.00 | 0.00 | 0.00 | 40 | 1018.7 |
| 20260503210925 | 69 | 158 | 2.0 | 4.0 | 0.00 | 0.00 | 0.00 | 42 | 1018.7 |
| 20260503210422 | 69 | 81 | 0.0 | 3.0 | 0.00 | 0.00 | 0.00 | 40 | 1018.7 |
| 20260503205917 | 69 | 149 | 0.0 | 3.0 | 0.00 | 0.00 | 0.00 | 42 | 1018.8 |
| 20260503205414 | 68 | 185 | 2.0 | 3.0 | 0.00 | 0.00 | 0.00 | 41 | 1018.9 |
| 20260503204910 | 69 | 170 | 2.0 | 3.0 | 0.00 | 0.00 | 0.00 | 38 | 1018.9 |
| 20260503204408 | 69 | 133 | 3.0 | 3.0 | 0.00 | 0.00 | 0.00 | 41 | 1019.0 |
| 20260503203905 | 68 | 182 | 0.0 | 3.0 | 0.00 | 0.00 | 0.00 | 42 | 1019.1 |
| 20260503203402 | 70 | 184 | 4.0 | 4.0 | 0.00 | 0.00 | 0.00 | 40 | 1019.0 |
| 20260503202859 | 70 | 195 | 2.0 | 6.0 | 0.00 | 0.00 | 0.00 | 39 | 1019.1 |
| 20260503202357 | 69 | 193 | 0.0 | 1.0 | 0.00 | 0.00 | 0.00 | 38 | 1019.1 |
| 20260503201855 | 68 | 201 | 1.0 | 3.0 | 0.00 | 0.00 | 0.00 | 38 | 1019.4 |
| 20260503201352 | 68 | 250 | 3.0 | 7.0 | 0.00 | 0.00 | 0.00 | 39 | 1019.1 |
| 20260503200850 | 69 | 164 | 1.0 | 3.0 | 0.00 | 0.00 | 0.00 | 41 | 1019.4 |
| 20260503200345 | 67 | 191 | 0.0 | 4.0 | 0.00 | 0.00 | 0.00 | 44 | 1019.5 |
| 20260503195843 | 68 | 266 | 3.0 | 6.0 | 0.00 | 0.00 | 0.00 | 39 | 1019.6 |
| 20260503195339 | 68 | 208 | 2.0 | 6.0 | 0.00 | 0.00 | 0.00 | 41 | 1019.6 |
| 20260503194836 | 69 | 199 | 3.0 | 6.0 | 0.00 | 0.00 | 0.00 | 40 | 1019.8 |
| 20260503194332 | 70 | 275 | 1.0 | 3.0 | 0.00 | 0.00 | 0.00 | 41 | 1020.0 |
| 20260503193829 | 69 | 175 | 1.0 | 2.0 | 0.00 | 0.00 | 0.00 | 42 | 1020.0 |
| 20260503193324 | 67 | 333 | 0.0 | 4.0 | 0.00 | 0.00 | 0.00 | 46 | 1020.0 |
| 20260503192821 | 67 | 167 | 1.0 | 2.0 | 0.00 | 0.00 | 0.00 | 42 | 1020.2 |
| 20260503192316 | 68 | 113 | 2.0 | 4.0 | 0.00 | 0.00 | 0.00 | 43 | 1020.2 |
| 20260503191812 | 67 | 146 | 0.0 | 1.0 | 0.00 | 0.00 | 0.00 | 47 | 1020.1 |
| 20260503191310 | 66 | 146 | 1.0 | 4.0 | 0.00 | 0.00 | 0.00 | 47 | 1020.1 |
| 20260503190806 | 67 | 162 | 3.0 | 4.0 | 0.00 | 0.00 | 0.00 | 43 | 1020.2 |
| 20260503190304 | 66 | 214 | 0.0 | 4.0 | 0.00 | 0.00 | 0.00 | 45 | 1020.3 |
| 20260503185801 | 67 | 175 | 2.0 | 7.0 | 0.00 | 0.00 | 0.00 | 46 | 1020.3 |
| 20260503185256 | 67 | 110 | 1.0 | 2.0 | 0.00 | 0.00 | 0.00 | 45 | 1020.4 |
| 20260503184756 | 66 | 283 | 1.0 | 3.0 | 0.00 | 0.00 | 0.00 | 46 | 1020.4 |
| 20260503184253 | 66 | 185 | 2.0 | 3.0 | 0.00 | 0.00 | 0.00 | 44 | 1020.7 |
| 20260503183748 | 65 | 160 | 4.0 | 7.0 | 0.00 | 0.00 | 0.00 | 48 | 1020.8 |
| 20260503183246 | 64 | 192 | 2.0 | 2.0 | 0.00 | 0.00 | 0.00 | 49 | 1020.6 |
| 20260503182744 | 65 | 146 | 1.0 | 1.0 | 0.00 | 0.00 | 0.00 | 52 | 1020.7 |
| 20260503182243 | 64 | 188 | 1.0 | 3.0 | 0.00 | 0.00 | 0.00 | 51 | 1020.7 |
| 20260503181739 | 64 | 139 | 3.0 | 3.0 | 0.00 | 0.00 | 0.00 | 50 | 1020.8 |
| 20260503181236 | 64 | 191 | 2.0 | 4.0 | 0.00 | 0.00 | 0.00 | 49 | 1021.0 |
| 20260503180732 | 64 | 356 | 2.0 | 4.0 | 0.00 | 0.00 | 0.00 | 46 | 1021.1 |
| 20260503180231 | 64 | 115 | 3.0 | 7.0 | 0.00 | 0.00 | 0.00 | 49 | 1020.9 |
| 20260503175727 | 63 | 198 | 1.0 | 4.0 | 0.00 | 0.00 | 0.00 | 46 | 1021.1 |
| 20260503175225 | 64 | 288 | 0.0 | 4.0 | 0.00 | 0.00 | 0.00 | 45 | 1021.4 |
| 20260503174721 | 64 | 247 | 2.0 | 7.0 | 0.00 | 0.00 | 0.00 | 44 | 1021.1 |
| 20260503174219 | 63 | 206 | 2.0 | 2.0 | 0.00 | 0.00 | 0.00 | 46 | 1021.2 |
| 20260503173714 | 63 | 176 | 0.0 | 4.0 | 0.00 | 0.00 | 0.00 | 48 | 1021.0 |
| 20260503173210 | 64 | 288 | 4.0 | 6.0 | 0.00 | 0.00 | 0.00 | 46 | 1020.9 |
| 20260503172707 | 62 | 254 | 1.0 | 3.0 | 0.00 | 0.00 | 0.00 | 48 | 1021.3 |
| 20260503172204 | 62 | 220 | 3.0 | 8.0 | 0.00 | 0.00 | 0.00 | 46 | 1021.4 |
| 20260503171700 | 61 | 359 | 1.0 | 2.0 | 0.00 | 0.00 | 0.00 | 48 | 1021.3 |
| 20260503171158 | 61 | 157 | 2.0 | 3.0 | 0.00 | 0.00 | 0.00 | 47 | 1021.6 |
| 20260503170655 | 61 | 271 | 1.0 | 3.0 | 0.00 | 0.00 | 0.00 | 48 | 1021.7 |
| 20260503170151 | 61 | 199 | 3.0 | 7.0 | 0.00 | 0.00 | 0.00 | 47 | 1021.7 |
| 20260503160113 | 59 | 139 | 0.0 | 0.0 | 0.00 | 0.00 | 0.00 | 58 | 1022.3 |
| 20260503150543 | 58 | 350 | 2.0 | 3.0 | 0.00 | 0.00 | 0.00 | 62 | 1022.5 |
| 20260503130933 | 54 | 239 | 1.0 | 2.0 | 0.00 | 0.00 | 0.00 | 77 | 1021.8 |
| 20260503130431 | 54 | 237 | 0.0 | 1.0 | 0.00 | 0.00 | 0.00 | 75 | 1021.7 |
| 20260503110824 | 40 | 343 | 0.0 | 0.0 | 0.00 | 0.00 | 0.00 | 97 | 1020.9 |
| 20260503110320 | 40 | 343 | 0.0 | 0.0 | 0.00 | 0.00 | 0.00 | 97 | 1020.6 |
| 20260503100247 | 41 | 343 | 0.0 | 0.0 | 0.00 | 0.00 | 0.00 | 95 | 1020.3 |
| 20260503090206 | 44 | 237 | 0.0 | 0.0 | 0.00 | 0.00 | 0.00 | 91 | 1019.6 |
| 20260503081138 | 44 | 278 | 0.0 | 0.0 | 0.00 | 0.00 | 0.00 | 90 | 1019.4 |
| 20260503080634 | 44 | 282 | 0.0 | 0.0 | 0.00 | 0.00 | 0.00 | 89 | 1019.2 |
| 20260503080131 | 45 | 258 | 0.0 | 0.0 | 0.00 | 0.00 | 0.00 | 89 | 1019.1 |
| 20260503072608 | 47 | 342 | 0.0 | 1.0 | 0.00 | 0.00 | 0.00 | 83 | 1019.0 |
| 20260503072106 | 47 | 218 | 0.0 | 0.0 | 0.00 | 0.00 | 0.00 | 83 | 1018.9 |
| 20260503071602 | 46 | 251 | 0.0 | 1.0 | 0.00 | 0.00 | 0.00 | 83 | 1018.9 |
| 20260503071059 | 46 | 243 | 0.0 | 0.0 | 0.00 | 0.00 | 0.00 | 85 | 1018.8 |
| 20260503070555 | 46 | 243 | 0.0 | 0.0 | 0.00 | 0.00 | 0.00 | 85 | 1018.9 |